Weather History for Elizabethton, TN

Change the Weather History Date:

Sunday, August 12, 2012

  Actual Average (KTRI) Record (KTRI)
Temperature  
Mean Temperature 66 °F 74 °F  
Max Temperature 78 °F 85 °F 96 °F (1944)
Min Temperature 53 °F 63 °F 51 °F (2008)
Degree Days  
Heating Degree Days 0 0  
Month to date heating degree days 0  
Since 1 June heating degree days 11  
Since 1 July heating degree days 0  
Cooling Degree Days 0 9  
Month to date cooling degree days 110  
Year to date cooling degree days 688  
Since 1 June cooling degree days 615  
Growing Degree Days 16 (Base 50)    
Moisture  
Dew Point 57 °F    
Average Humidity 77    
Maximum Humidity 100    
Minimum Humidity 42    
Precipitation  
Precipitation 0.00 in 0.11 in 1.17 in (2004)
Month to date precipitation 1.52  
Year to date precipitation 27.50  
Snow  
Snow 0.00 in 0.00 in - ()
Month to date snowfall 0.0  
Since 1 June snowfall 0.0  
Since 1 July snowfall 0.0  
Snow Depth -    
Sea Level Pressure  
Sea Level Pressure 30.07 in    
Wind  
Wind Speed 1 mph (West)    
Max Wind Speed 9 mph    
Max Gust Speed -    
Visibility 10 miles    
Events      
T = Trace of Precipitation, MM = Missing Value Source: NWS Daily Summary

Daily Weather History Graph

Daily Weather History Graph

Search for Another Location

Airport:

Trip Planner

Search our weather history database for the weather conditions in past years. The results will help you decide how hot, cold, wet, or windy it might be!

Date:

Astronomy

Aug. 12, 2012 Rise Set
Actual Time 6:44 AM EDT 8:22 PM EDT
Civil Twilight 6:16 AM EDT 8:49 PM EDT
Nautical Twilight 5:43 AM EDT 9:22 PM EDT
Astronomical Twilight 5:08 AM EDT 9:57 PM EDT
Moon 2:00 AM EDT (8/12) 4:42 PM EDT (8/12)
Length of Visible Light 14h 32m
Length of Day
13h 37m
Waning Crescent, 24% of the Moon is Illuminated
Aug 12
Waning Crescent
Aug 17
New
Aug 24
First Quarter
Aug 31
Full
Sep 8
Last Quarter

Hourly Weather History & Observations

Time (EDT) Temp. Dew Point Humidity Pressure Visibility Wind Dir Wind Speed Gust Speed Precip Events Conditions
12:55 AM 55.4 °F 55.4 °F 100% 30.06 in 10.0 mi Calm Calm - N/A   Clear
1:15 AM 55.4 °F 55.4 °F 100% 30.06 in 9.0 mi Calm Calm - N/A   Clear
1:35 AM 55.4 °F 55.4 °F 100% 30.06 in 10.0 mi Calm Calm - N/A   Clear
1:55 AM 55.4 °F 55.4 °F 100% 30.05 in 10.0 mi Calm Calm - N/A   Clear
2:15 AM 55.4 °F 55.4 °F 100% 30.05 in 10.0 mi Calm Calm - N/A   Clear
2:35 AM 55.4 °F 55.4 °F 100% 30.05 in 9.0 mi Calm Calm - N/A   Clear
2:55 AM 55.4 °F 53.6 °F 94% 30.05 in 10.0 mi Calm Calm - N/A   Partly Cloudy
3:15 AM 55.4 °F 55.4 °F 100% 30.05 in 10.0 mi Calm Calm - N/A   Partly Cloudy
3:35 AM 55.4 °F 55.4 °F 100% 30.06 in 9.0 mi Calm Calm - N/A   Clear
3:55 AM 55.4 °F 55.4 °F 100% 30.06 in 10.0 mi Calm Calm - N/A   Clear
4:15 AM 55.4 °F 55.4 °F 100% 30.07 in 9.0 mi Calm Calm - N/A   Clear
4:35 AM 53.6 °F 53.6 °F 100% 30.07 in 10.0 mi Calm Calm - N/A   Clear
4:55 AM 53.6 °F 53.6 °F 100% 30.07 in 6.0 mi Calm Calm - N/A   Clear
5:15 AM 53.6 °F 53.6 °F 100% 30.07 in 10.0 mi Calm Calm - N/A   Clear
5:35 AM 53.6 °F 53.6 °F 100% 30.06 in 9.0 mi Calm Calm - N/A   Clear
5:55 AM 53.6 °F 53.6 °F 100% 30.07 in 10.0 mi Calm Calm - N/A   Clear
6:15 AM 53.6 °F 53.6 °F 100% 30.07 in 10.0 mi Calm Calm - N/A   Partly Cloudy
6:35 AM 53.6 °F 53.6 °F 100% 30.07 in 10.0 mi Calm Calm - N/A   Clear
6:55 AM 53.6 °F 53.6 °F 100% 30.07 in 10.0 mi Calm Calm - N/A   Clear
7:15 AM 53.6 °F 53.6 °F 100% 30.08 in 9.0 mi Calm Calm - N/A   Clear
7:35 AM 55.4 °F 53.6 °F 94% 30.09 in 6.0 mi Calm Calm - N/A   Scattered Clouds
7:55 AM 57.2 °F 55.4 °F 94% 30.09 in 6.0 mi Calm Calm - N/A   Partly Cloudy
8:15 AM 59.0 °F 55.4 °F 88% 30.09 in 10.0 mi Calm Calm - N/A   Clear
8:35 AM 60.8 °F 55.4 °F 82% 30.09 in 4.0 mi Calm Calm - N/A   Haze
8:55 AM 62.6 °F 57.2 °F 82% 30.09 in 6.0 mi Calm Calm - N/A   Haze
9:15 AM 62.6 °F 57.2 °F 82% 30.09 in 9.0 mi Calm Calm - N/A   Clear
9:35 AM 64.4 °F 57.2 °F 77% 30.09 in 10.0 mi Calm Calm - N/A   Clear
9:55 AM 69.8 °F 59.0 °F 68% 30.09 in 10.0 mi Calm Calm - N/A   Clear
10:15 AM 68.0 °F 57.2 °F 68% 30.09 in 10.0 mi Calm Calm - N/A   Clear
10:35 AM 68.0 °F 57.2 °F 68% 30.10 in 10.0 mi Calm Calm - N/A   Clear
10:55 AM 71.6 °F 59.0 °F 64% 30.09 in 10.0 mi Calm Calm - N/A   Clear
11:15 AM 71.6 °F 60.8 °F 69% 30.09 in 10.0 mi Variable 5.8 mph - N/A   Clear
11:35 AM 71.6 °F 60.8 °F 69% 30.09 in 10.0 mi SSW 5.8 mph - N/A   Partly Cloudy
11:55 AM 71.6 °F 60.8 °F 69% 30.08 in 10.0 mi SW 6.9 mph - N/A   Partly Cloudy
12:15 PM 75.2 °F 57.2 °F 53% 30.08 in 10.0 mi West 6.9 mph - N/A   Clear
12:35 PM 75.2 °F 55.4 °F 50% 30.08 in 10.0 mi WSW 8.1 mph - N/A   Partly Cloudy
12:55 PM 75.2 °F 55.4 °F 50% 30.08 in 10.0 mi West 9.2 mph - N/A   Clear
1:15 PM 77.0 °F 55.4 °F 47% 30.07 in 10.0 mi WNW 6.9 mph - N/A   Clear
1:35 PM 77.0 °F 55.4 °F 47% 30.07 in 10.0 mi Variable 4.6 mph - N/A   Clear
1:55 PM 77.0 °F 57.2 °F 50% 30.07 in 10.0 mi West 9.2 mph - N/A   Clear
2:15 PM 78.8 °F 55.4 °F 44% 30.06 in 10.0 mi West 8.1 mph - N/A   Clear
2:35 PM 78.8 °F 55.4 °F 44% 30.06 in 10.0 mi WSW 5.8 mph - N/A   Clear
2:55 PM 78.8 °F 53.6 °F 42% 30.05 in 10.0 mi West 5.8 mph - N/A   Clear
3:15 PM 78.8 °F 57.2 °F 47% 30.05 in 10.0 mi West 8.1 mph - N/A   Clear
3:35 PM 78.8 °F 57.2 °F 47% 30.05 in 10.0 mi West 8.1 mph - N/A   Clear
3:55 PM 78.8 °F 55.4 °F 44% 30.05 in 10.0 mi WNW 6.9 mph - N/A   Clear
4:15 PM 78.8 °F 55.4 °F 44% 30.05 in 10.0 mi Variable 3.5 mph - N/A   Clear
4:35 PM 78.8 °F 55.4 °F 44% 30.05 in 10.0 mi NW 6.9 mph - N/A   Clear
4:55 PM 78.8 °F 57.2 °F 47% 30.05 in 10.0 mi West 4.6 mph - N/A   Clear
5:15 PM 78.8 °F 57.2 °F 47% 30.04 in 10.0 mi WNW 5.8 mph - N/A   Clear
5:35 PM 78.8 °F 55.4 °F 44% 30.04 in 10.0 mi NW 4.6 mph - N/A   Clear
5:55 PM 78.8 °F 55.4 °F 44% 30.04 in 10.0 mi WNW 5.8 mph - N/A   Clear
6:15 PM 77.0 °F 57.2 °F 50% 30.04 in 10.0 mi West 3.5 mph - N/A   Clear
6:35 PM 71.6 °F 62.6 °F 73% 30.04 in 10.0 mi Calm Calm - N/A   Clear
6:55 PM 73.4 °F 62.6 °F 69% 30.04 in 10.0 mi Calm Calm - N/A   Clear
7:15 PM 75.2 °F 64.4 °F 69% 30.04 in 10.0 mi Calm Calm - N/A   Clear
7:35 PM 71.6 °F 64.4 °F 78% 30.05 in 10.0 mi Calm Calm - N/A   Clear
7:55 PM 69.8 °F 60.8 °F 73% 30.05 in 10.0 mi North 3.5 mph - N/A   Clear
8:15 PM 66.2 °F 60.8 °F 83% 30.06 in 10.0 mi Calm Calm - N/A   Clear
8:35 PM 64.4 °F 59.0 °F 83% 30.07 in 10.0 mi Calm Calm - N/A   Clear
8:55 PM 62.6 °F 59.0 °F 88% 30.08 in 10.0 mi Calm Calm - N/A   Clear
9:15 PM 60.8 °F 57.2 °F 88% 30.09 in 10.0 mi Calm Calm - N/A   Clear
9:35 PM 60.8 °F 57.2 °F 88% 30.09 in 10.0 mi Calm Calm - N/A   Clear
9:55 PM 60.8 °F 57.2 °F 88% 30.10 in 10.0 mi Calm Calm - N/A   Clear
10:15 PM 59.0 °F 57.2 °F 94% 30.11 in 10.0 mi Calm Calm - N/A   Clear
10:35 PM 60.8 °F 57.2 °F 88% 30.11 in 10.0 mi Calm Calm - N/A   Clear
10:55 PM 60.8 °F 57.2 °F 88% 30.11 in 10.0 mi Calm Calm - N/A   Clear
11:15 PM 60.8 °F 57.2 °F 88% 30.11 in 10.0 mi Calm Calm - N/A   Clear
11:35 PM 60.8 °F 57.2 °F 88% 30.11 in 10.0 mi Calm Calm - N/A   Clear
11:55 PM 60.8 °F 55.4 °F 82% 30.10 in 10.0 mi Variable 3.5 mph - N/A   Clear